Home > Weather > Chicago > Past weeks

Flag for USA Past Weather in Chicago, Illinois, USA — Yesterday and Last 2 Weeks

Now
72 °F

Passing clouds.


Feels Like: 77 °F
Forecast: 65 / 80 °F
Wind: 5 mph from Southeast

Location: Chicago Midway Airport

Current Time: Jun 29, 2016 at 11:57:44 PM

Latest Report: Jun 29, 2016 at 10:53 PM


Visibility: 10 mi

Pressure: 30.04 "Hg

Humidity: 37%

Dew Point: 44 °F

Location of ChicagoLocation

Past Weather in Chicago — Graph

°F

Chicago Temperature Yesterday

Maximum temperature yesterday: 73 °F (at 12:53 AM)
Minimum temperature yesterday: 63 °F (at 11:53 PM)
Average temperature yesterday: 67 °F

High & Low Weather Summary for the Past Weeks

 TemperatureHumidityPressure
High92 °F (Jun 15, 4:53 PM)93% (Jun 15, 4:53 AM)30.21 "Hg (Jun 15, 4:53 AM)
Low58 °F (Jun 29, 3:53 AM)26% (Jun 18, 11:53 AM)29.66 "Hg (Jun 15, 8:53 PM)
Average76 °F57%29.98 "Hg
* Reported Jun 14 9:53 PM — Jun 29 9:53 PM, Chicago, Weather by CustomWeather, © 2016

Note: Actual official high and low records may vary slightly from our data, if they occured in-between our weather recording intervals... More about our weather records

Advertising

Chicago Weather History for the Previous 24 Hours

Scroll right to see more
 ConditionsComfort  
Time TempWeatherWind HumidityBarometerVisibility
9:53 PM
Wed, Jun 29
72 °FPassing clouds.5 mph37%30.05 "Hg10 mi
8:53 PM72 °FScattered clouds.6 mph34%30.03 "Hg10 mi
7:53 PM73 °FPartly sunny.8 mph36%30.03 "Hg10 mi
6:53 PM74 °FPartly sunny.12 mph33%30.03 "Hg10 mi
5:53 PM76 °FPartly sunny.10 mph33%30.04 "Hg10 mi
4:53 PM77 °FPartly sunny.10 mph35%30.06 "Hg10 mi
3:53 PM77 °FScattered clouds.10 mph35%30.07 "Hg10 mi
2:53 PM77 °FScattered clouds.9 mph36%30.08 "Hg10 mi
1:53 PM77 °FPassing clouds.10 mph37%30.09 "Hg10 mi
12:53 PM76 °FPassing clouds.8 mph40%30.10 "Hg10 mi
11:53 AM73 °FPassing clouds.9 mph43%30.11 "Hg10 mi
10:53 AM74 °FPassing clouds.10 mph41%30.11 "Hg10 mi
9:53 AM72 °FSunny.10 mph43%30.12 "Hg10 mi
8:53 AM71 °FPassing clouds.8 mph44%30.12 "Hg10 mi
7:53 AM67 °FPassing clouds.7 mph53%30.13 "Hg10 mi
6:53 AM62 °FSunny.6 mph70%30.13 "Hg10 mi
5:53 AM58 °FClear.7 mph78%30.12 "Hg10 mi
4:53 AM58 °FClear.5 mph78%30.11 "Hg10 mi
3:53 AM58 °FClear.6 mph78%30.12 "Hg10 mi
2:53 AM59 °FClear.7 mph75%30.14 "Hg10 mi
1:53 AM60 °FClear.6 mph75%30.14 "Hg10 mi
12:53 AM60 °FClear.5 mph72%30.11 "Hg10 mi
11:53 PM
Tue, Jun 28
63 °FClear.3 mph68%30.11 "Hg10 mi
Weather by CustomWeather, © 2016

See weather overviewHow to use our weather pages